Gran Canaria > ESTACION METEOROLÓGICA Tejeda

DATOS ACTUALES Online

Ultima actulizacion 1 h 31 minutos

23.6 ºC

Temperatura

33

Humedad (%)

Presión (mb)

0

Precipitación (mm)

2.3 S

Viento (Km/h)

DATOS DIARIOS

Temperatura últimas 24 horas (ºC)

Humedad últimas 24 horas (%)

Presión atmosférica últimas 24 horas (mb)

Precipitaciones últimas 23 horas (mm)

Viento últimas 24 horas (Km/h)

Hora Temperatura (°C) ºC Precipitación (mm) mm Presión (mb) mb Humedad (%) % Viento (Km/h) km/h
15 - 22:00 26.7 0 0 38 1.5 SO
15 - 23:00 26.4 0 0 38 2.4 O
16 - 00:00 26.1 0 0 36 3.6 O
16 - 01:00 25.5 0 0 31 3.1 SO
16 - 02:00 25.9 0 0 29 1.1 O
16 - 03:00 25.7 0 0 24 0.3 O
16 - 04:00 26.9 0 0 22 4.6 NO
16 - 05:00 26.4 0 0 20 6.1 NO
16 - 06:00 26.7 0 0 22 2.1 O
16 - 07:00 26.4 0 0 21 3.3 O
16 - 08:00 26.7 0 0 22 3.2 O
16 - 09:00 26.3 0 0 24 0.2 W
16 - 10:00 27.6 0 0 28 4.3 NO
16 - 11:00 29 0 0 28 2.5 NO
16 - 12:00 29.1 0 0 29 3.2 NO
16 - 13:00 29.7 0 0 32 1.9 W
16 - 14:00 30.8 0 0 33 2.7 W
16 - 15:00 31.4 0 0 32 2.6 W
16 - 16:00 32.5 0 0 29 2.2 W
16 - 17:00 32.8 0 0 27 3.1 SW
16 - 18:00 28.6 0 0 24 3.3 NO
16 - 19:00 27.8 0 0 21 5.7 NO
16 - 20:00 26.1 0 0 24 2.9 NO
16 - 21:00 23.6 0 0 33 2.3 S
16 - 22:00
Apalmet utiliza cookies propias y de terceros para mejorar la usabilidad y la experiencia web. Política de cookies.